• In Portugal
  • List of Countries
  • For 7 days
  • Water Temperature
  • Satellite Maps
  • Weather Map
  • Weather Widgets
  • user-avatar
    Login

    Hourly Weather Lezhe

    Today, 16 August, Thursday

    Time Temperature Precipitation Wind Pressure Humidity
    00:00 +23°C° 0.1 mm 2 mps 736 mmHg 72%
    01:00 +21°C° 0.1 mm 2 mps 736 mmHg 73%
    02:00 +21°C° 0.3 mm 2 mps 736 mmHg 74%
    03:00 +21°C° 0.3 mm 3 mps 736 mmHg 75%
    04:00 +21°C° 0.3 mm 3 mps 736 mmHg 76%
    05:00 +22°C° 0.2 mm 3 mps 736 mmHg 74%
    06:00 +22°C° 0.2 mm 3 mps 736 mmHg 72%
    07:00 +24°C° 0.2 mm 3 mps 736 mmHg 70%
    08:00 +26°C° 0.1 mm 3 mps 736 mmHg 63%
    09:00 +27°C° 0.1 mm 3 mps 736 mmHg 57%
    10:00 +29°C° 0.1 mm 3 mps 736 mmHg 50%
    11:00 +30°C° 0.2 mm 3 mps 736 mmHg 47%
    12:00 +31°C° 0.2 mm 2 mps 736 mmHg 44%
    13:00 +32°C° 0.2 mm 2 mps 736 mmHg 41%
    14:00 +31°C° 0.7 mm 2 mps 736 mmHg 46%
    15:00 +30°C° 0.7 mm 2 mps 735 mmHg 51%
    16:00 +29°C° 0.7 mm 3 mps 735 mmHg 56%
    17:00 +27°C° 0.5 mm 2 mps 735 mmHg 60%
    18:00 +26°C° 0.5 mm 2 mps 735 mmHg 65%
    19:00 +25°C° 0.5 mm 2 mps 736 mmHg 70%
    20:00 +24°C° 0.1 mm 2 mps 736 mmHg 71%
    21:00 +23°C° 0.1 mm 2 mps 736 mmHg 71%
    22:00 +23°C° 0.1 mm 1 mps 736 mmHg 72%
    23:00 +23°C° 0 mm 2 mps 736 mmHg 72%

    Tomorrow, 17 August, Friday

    Time Temperature Precipitation Wind Pressure Humidity
    00:00 +21°C° 0 mm 2 mps 736 mmHg 72%
    01:00 +21°C° 0 mm 2 mps 736 mmHg 73%
    02:00 +21°C° 0 mm 2 mps 736 mmHg 72%
    03:00 +20°C° 0 mm 2 mps 736 mmHg 72%
    04:00 +20°C° 0 mm 2 mps 736 mmHg 72%
    05:00 +23°C° 0 mm 2 mps 736 mmHg 68%
    06:00 +24°C° 0 mm 2 mps 736 mmHg 64%
    07:00 +26°C° 0 mm 2 mps 736 mmHg 61%
    08:00 +27°C° 0 mm 1 mps 736 mmHg 54%
    09:00 +29°C° 0 mm 1 mps 736 mmHg 47%
    10:00 +31°C° 0 mm 1 mps 736 mmHg 40%
    11:00 +32°C° 0.1 mm 2 mps 736 mmHg 40%
    12:00 +32°C° 0.1 mm 2 mps 736 mmHg 39%
    13:00 +34°C° 0.1 mm 3 mps 736 mmHg 38%
    14:00 +33°C° 0.2 mm 3 mps 736 mmHg 41%
    15:00 +33°C° 0.2 mm 3 mps 735 mmHg 44%
    16:00 +31°C° 0.2 mm 3 mps 735 mmHg 48%
    17:00 +29°C° 0.3 mm 2 mps 735 mmHg 54%
    18:00 +27°C° 0.3 mm 2 mps 735 mmHg 60%
    19:00 +25°C° 0.3 mm 1 mps 736 mmHg 66%
    20:00 +24°C° 0.3 mm 1 mps 736 mmHg 67%
    21:00 +24°C° 0.3 mm 1 mps 736 mmHg 69%
    22:00 +23°C° 0.3 mm 1 mps 736 mmHg 70%
    23:00 +23°C° 0.1 mm 1 mps 736 mmHg 70%

    Day after tomorrow, 18 August, Saturday

    Time Temperature Precipitation Wind Pressure Humidity
    00:00 +23°C° 0.1 mm 1 mps 736 mmHg 70%
    01:00 +23°C° 0.1 mm 1 mps 736 mmHg 69%
    02:00 +22°C° 0.1 mm 1 mps 736 mmHg 69%
    03:00 +22°C° 0.1 mm 1 mps 736 mmHg 69%
    04:00 +21°C° 0.1 mm 2 mps 736 mmHg 69%
    05:00 +23°C° 0.1 mm 2 mps 736 mmHg 66%
    06:00 +25°C° 0.1 mm 1 mps 736 mmHg 62%
    07:00 +26°C° 0.1 mm 1 mps 737 mmHg 59%
    08:00 +28°C° 0.1 mm 1 mps 737 mmHg 53%
    09:00 +30°C° 0.1 mm 1 mps 737 mmHg 47%
    10:00 +32°C° 0.1 mm 1 mps 737 mmHg 41%
    11:00 +32°C° 0.1 mm 2 mps 737 mmHg 41%
    12:00 +34°C° 0.1 mm 2 mps 737 mmHg 40%
    13:00 +34°C° 0.1 mm 3 mps 736 mmHg 39%
    14:00 +34°C° 0.1 mm 3 mps 736 mmHg 41%
    15:00 +33°C° 0.1 mm 3 mps 736 mmHg 43%
    16:00 +33°C° 0.1 mm 3 mps 736 mmHg 45%
    17:00 +30°C° 0.1 mm 2 mps 736 mmHg 50%
    18:00 +28°C° 0.1 mm 2 mps 736 mmHg 55%
    19:00 +26°C° 0.1 mm 2 mps 737 mmHg 60%
    20:00 +25°C° 0.2 mm 2 mps 737 mmHg 61%
    21:00 +25°C° 0.2 mm 2 mps 737 mmHg 62%
    22:00 +24°C° 0.2 mm 2 mps 737 mmHg 64%
    23:00 +24°C° 0.1 mm 2 mps 737 mmHg 64%

    19 August, Sunday

    Time Temperature Precipitation Wind Pressure Humidity
    00:00 +24°C° 0.1 mm 2 mps 737 mmHg 65%
    01:00 +23°C° 0.1 mm 2 mps 737 mmHg 66%
    02:00 +23°C° 0 mm 2 mps 737 mmHg 65%
    03:00 +23°C° 0 mm 2 mps 737 mmHg 65%
    04:00 +23°C° 0 mm 2 mps 737 mmHg 64%
    05:00 +24°C° 0 mm 2 mps 737 mmHg 62%
    06:00 +25°C° 0 mm 2 mps 737 mmHg 59%
    07:00 +27°C° 0 mm 2 mps 738 mmHg 57%
    08:00 +29°C° 0 mm 2 mps 738 mmHg 50%
    09:00 +30°C° 0 mm 2 mps 738 mmHg 44%
    10:00 +32°C° 0 mm 2 mps 738 mmHg 38%
    11:00 +34°C° 0 mm 2 mps 738 mmHg 36%
    12:00 +35°C° 0 mm 3 mps 737 mmHg 35%
    13:00 +35°C° 0 mm 3 mps 737 mmHg 34%
    14:00 +35°C° 0 mm 3 mps 737 mmHg 36%
    15:00 +34°C° 0 mm 3 mps 737 mmHg 39%
    16:00 +33°C° 0 mm 3 mps 737 mmHg 41%
    17:00 +31°C° 0 mm 3 mps 737 mmHg 44%
    18:00 +29°C° 0 mm 3 mps 737 mmHg 46%
    19:00 +27°C° 0 mm 2 mps 737 mmHg 49%
    20:00 +27°C° 0 mm 2 mps 737 mmHg 49%
    21:00 +26°C° 0 mm 2 mps 738 mmHg 49%
    22:00 +26°C° 0 mm 2 mps 738 mmHg 49%
    23:00 +25°C° 0 mm 3 mps 738 mmHg 52%

    20 August, Monday

    Time Temperature Precipitation Wind Pressure Humidity
    00:00 +24°C° 0 mm 3 mps 738 mmHg 55%
    01:00 +24°C° 0 mm 3 mps 737 mmHg 58%
    02:00 +22°C° 0 mm 3 mps 737 mmHg 59%
    03:00 +22°C° 0 mm 3 mps 737 mmHg 60%
    04:00 +22°C° 0 mm 3 mps 737 mmHg 60%
    05:00 +24°C° 0 mm 3 mps 737 mmHg 58%
    06:00 +26°C° 0 mm 3 mps 738 mmHg 56%
    07:00 +27°C° 0 mm 3 mps 738 mmHg 54%
    08:00 +29°C° 0 mm 3 mps 738 mmHg 48%
    09:00 +31°C° 0 mm 3 mps 738 mmHg 42%
    10:00 +33°C° 0 mm 3 mps 738 mmHg 37%
    11:00 +34°C° 0 mm 3 mps 738 mmHg 35%
    12:00 +35°C° 0 mm 3 mps 737 mmHg 33%
    13:00 +36°C° 0 mm 3 mps 737 mmHg 31%
    14:00 +35°C° 0 mm 3 mps 737 mmHg 33%
    15:00 +35°C° 0 mm 3 mps 737 mmHg 35%
    16:00 +34°C° 0 mm 3 mps 737 mmHg 36%
    17:00 +31°C° 0 mm 3 mps 737 mmHg 40%
    18:00 +29°C° 0 mm 3 mps 737 mmHg 43%
    19:00 +27°C° 0 mm 3 mps 737 mmHg 47%
    20:00 +27°C° 0 mm 3 mps 737 mmHg 50%
    21:00 +26°C° 0 mm 3 mps 738 mmHg 52%
    22:00 +25°C° 0 mm 3 mps 738 mmHg 55%
    23:00 +24°C° 0.1 mm 3 mps 738 mmHg 56%

    21 August, Tuesday

    Time Temperature Precipitation Wind Pressure Humidity
    00:00 +24°C° 0.1 mm 3 mps 738 mmHg 58%
    01:00 +24°C° 0.1 mm 3 mps 738 mmHg 60%
    02:00 +24°C° 0 mm 3 mps 738 mmHg 60%
    03:00 +22°C° 0 mm 3 mps 738 mmHg 61%
    04:00 +22°C° 0 mm 3 mps 738 mmHg 61%
    05:00 +25°C° 0 mm 3 mps 738 mmHg 59%
    06:00 +26°C° 0 mm 3 mps 738 mmHg 57%
    07:00 +27°C° 0 mm 3 mps 738 mmHg 55%
    08:00 +29°C° 0 mm 2 mps 738 mmHg 49%
    09:00 +31°C° 0 mm 2 mps 738 mmHg 43%
    10:00 +34°C° 0 mm 2 mps 738 mmHg 37%
    11:00 +35°C° 0.1 mm 2 mps 738 mmHg 35%
    12:00 +35°C° 0.1 mm 2 mps 738 mmHg 34%
    13:00 +36°C° 0.1 mm 2 mps 738 mmHg 32%
    14:00 +35°C° 0.3 mm 2 mps 737 mmHg 36%
    15:00 +34°C° 0.3 mm 2 mps 737 mmHg 40%
    16:00 +32°C° 0.3 mm 2 mps 737 mmHg 44%
    17:00 +30°C° 0.2 mm 2 mps 737 mmHg 47%
    18:00 +29°C° 0.2 mm 2 mps 737 mmHg 51%
    19:00 +27°C° 0.2 mm 2 mps 737 mmHg 55%
    20:00 +26°C° 0.3 mm 2 mps 737 mmHg 57%
    21:00 +25°C° 0.3 mm 2 mps 737 mmHg 59%
    22:00 +24°C° 0.3 mm 2 mps 737 mmHg 62%
    23:00 +24°C° 0.2 mm 2 mps 737 mmHg 63%
    Show more